Location: Newark
(36.7000°N, 45.1333°E)
Time: 12:57:02
(UTC+00:00)

LightSail 2 - Pass Details

Date: 26 January 2020
Orbit: 698 x 723 km, 24.0° (Epoch: 24 February)

Event Time Altitude Azimuth Distance (km) Brightness Sun altitude
Rises 16:24:08 0° 247° (WSW) 3,078 9.6 -25.3°
Reaches altitude 10° 16:28:30 10° 212° (SSW) 2,166 8.1 -26.2°
Maximum altitude 16:29:53 11° 196° (SSW) 2,097 7.8 -26.4°
Drops below altitude 10° 16:31:17 10° 180° (S) 2,170 7.7 -26.7°
Enters shadow 16:31:51 - 174° (S) 2,239 7.7 -26.8°
